CAPE
0 0 0 16 19 24 139 280 471 619 547 742 611 335 288 638 979 1036 798 722 817 987 966 872 951 868 708 630 798 854 721 536 457 340 248 162 31 0 0 0 0 7 0
0 0 0 22 15 10 7 96 242 471 544 673 624 372 226 522 747 691 536 569 680 910 910 1101 1113 955 859 739 550 584 427 367 270 206 153 73 6 5 0 0 0 2 6
0 0 0 17 12 10 10 7 83 238 406 558 575 330 233 265 443 230 385 219 297 964 1172 1130 1020 1148 774 560 424 371 319 242 165 114 48 24 12 7 4 2 0 0 26
0 0 0 11 12 10 11 8 10 28 156 321 434 280 197 173 169 128 168 42 147 688 990 960 1034 934 679 418 326 252 207 142 34 26 41 11 5 9 9 6 1 8 22
0 0 0 8 7 5 8 7 7 11 8 82 212 359 266 273 194 103 22 148 94 66 448 848 810 643 448 293 220 163 119 43 45 72 27 8 4 12 9 8 1 35 14
0 0 0 0 0 3 5 4 6 4 6 5 22 138 244 317 210 145 97 167 115 92 254 419 695 539 286 178 166 105 24 14 16 45 19 3 6 9 0 9 19 17 12
0 0 0 0 0 0 0 5 5 3 3 5 5 2 80 199 249 155 120 150 151 184 164 163 291 230 195 153 107 27 1 1 64 38 18 6 7 4 0 14 24 14 24
0 0 0 0 0 0 0 0 4 5 4 2 5 5 3 70 147 122 80 60 96 85 24 15 114 119 146 130 45 0 0 0 40 41 28 12 7 9 0 28 25 18 12
0 0 0 0 0 0 0 0 1 3 2 2 5 6 5 1 15 62 112 90 84 52 1 102 49 0 175 113 37 0 7 0 37 33 35 12 9 12 0 27 16 22 23
0 0 0 0 0 0 0 0 0 1 1 1 2 3 3 4 0 10 57 131 103 89 119 64 25 41 157 115 40 0 12 0 45 33 21 15 2 8 24 25 16 23 19
0 0 0 0 0 0 0 0 0 0 0 0 0 2 4 6 5 0 4 125 119 126 12 0 4 0 49 53 42 13 7 43 51 51 24 0 3 1 18 30 14 16 19
0 0 0 0 0 0 0 0 0 0 0 0 0 0 2 5 7 4 0 30 96 10 36 10 11 22 1 62 81 22 40 46 54 33 18 0 0 4 13 17 3 3 14
0 0 0 0 0 0 0 0 0 0 0 0 0 1 0 2 6 3 2 1 209 0 2 15 0 31 16 38 74 132 78 41 39 27 10 0 0 3 11 21 6 4 25
0 0 0 0 0 0 0 0 0 0 0 0 0 0 1 1 3 6 3 4 3 4 44 11 34 40 76 13 31 108 64 24 46 28 9 0 0 16 6 13 7 11 24
0 0 0 0 0 0 0 0 0 0 0 0 0 0 1 6 4 3 2 5 4 24 38 44 52 25 33 5 15 0 107 60 57 39 22 0 0 6 18 0 0 2 25
0 0 0 0 0 0 0 0 0 0 0 0 0 0 1 2 4 5 3 5 5 4 83 100 58 23 1 5 10 20 71 118 85 79 30 2 0 1 9 1 18 17 22
0 0 0 0 0 0 0 0 0 0 0 0 0 0 0 1 2 2 4 6 5 4 4 145 68 28 12 20 0 5 88 77 97 90 44 9 1 2 16 10 5 32 31
0 0 0 0 0 0 0 0 0 0 0 0 0 0 0 0 0 2 3 3 4 4 1 14 5 3 0 11 12 4 94 90 96 84 71 15 4 10 10 21 10 2 13
0 0 0 0 0 0 0 0 0 0 0 0 0 0 0 0 0 2 3 2 3 4 5 1 36 6 0 4 15 51 94 70 94 90 83 49 15 10 11 3 4 0 0
0 0 0 0 0 0 0 0 0 0 0 0 0 0 1 1 0 1 2 2 3 5 8 4 8 33 1 0 13 23 83 86 74 60 64 46 18 6 14 6 4 1 5
0 0 0 0 0 0 0 0 0 0 0 0 0 0 0 1 1 0 1 3 1 5 6 5 1 74 40 5 4 36 45 39 60 49 47 31 19 9 6 16 28 22 7
4 4 1 0 0 0 0 0 0 0 0 0 0 0 0 0 2 1 0 3 2 4 4 4 5 55 51 8 1 1 4 15 38 34 40 29 9 8 3 10 5 9 8
16 10 5 7 4 5 1 1 0 0 0 0 0 0 0 0 3 1 1 3 1 3 4 4 5 2 50 2 1 0 0 4 14 16 19 42 13 9 6 4 8 5 4
8 9 6 10 12 21 12 8 2 0 0 0 0 0 0 2 2 5 3 3 1 1 3 3 4 5 2 14 2 0 0 0 2 9 11 12 15 6 6 6 5 6 4
0 7 3 14 20 21 18 15 6 0 0 0 1 1 1 2 4 6 2 3 1 2 3 4 3 3 3 34 9 2 0 0 4 0 8 11 8 8 5 8 11 7 6
0 3 9 14 29 21 22 19 9 2 0 2 4 3 1 4 3 6 5 2 1 3 3 3 2 4 4 3 5 2 3 4 8 0 13 11 8 10 9 14 9 8 7
CIN
-0 -0 -0 -0 -0 -170 -17 -1 -3 -9 -17 -17 -23 -29 -32 -16 -11 -7 -10 -9 -4 -1 -0 -0 -0 -6 -16 -19 -5 -1 -1 -2 -1 -2 -2 -24 -121 -0 -0 -0 -0 -0 -0
-0 -0 -0 -0 -0 -19 -10 -54 -9 -14 -19 -13 -15 -22 -46 -16 -14 -14 -17 -8 -6 -0 -0 -0 -0 -0 -2 -2 -7 -2 -3 -3 -3 -9 -20 -63 -15 -0 -0 -0 -0 -1 -2
-0 -0 -0 -0 -0 -0 -0 -0 -54 -19 -15 -10 -3 -24 -42 -25 -11 -14 -10 -26 -6 -0 -0 -0 -0 -1 -3 -6 -10 -8 -5 -7 -9 -25 -82 -112 -31 -0 -1 -3 -0 -0 -0
-0 -0 -0 -0 -0 -0 -0 -0 -0 -45 -31 -33 -13 -6 -38 -48 -23 -12 -10 -33 -14 -3 -0 -0 -0 -1 -2 -13 -15 -17 -17 -19 -92 -113 -73 -177 -1 -0 -2 -1 -0 -0 -2
-0 -0 -0 -0 -0 -0 -0 -0 -0 -0 -51 -57 -45 -37 -5 -21 -19 -30 -45 -14 -20 -53 -1 -0 -1 -8 -13 -20 -18 -19 -25 -58 -44 -34 -108 -0 -1 -1 -1 -3 -0 -1 -2
-0 -0 -0 -0 -0 -0 -0 -0 -0 -0 -0 -0 -84 -50 -41 -8 -12 -14 -17 -8 -19 -34 -0 -2 -2 -2 -26 -28 -22 -25 -64 -85 -82 -64 -144 -0 -1 -1 -0 -1 -3 -7 -11
-0 -0 -0 -0 -0 -0 -0 -0 -0 -0 -0 -0 -0 -0 -66 -55 -16 -10 -10 -11 -19 -20 -19 -15 -7 -19 -20 -22 -31 -47 -41 -21 -28 -91 -0 -0 -0 -0 -0 -0 -5 -8 -5
-0 -0 -0 -0 -0 -0 -0 -0 -0 -0 -0 -0 -0 -0 -0 -90 -72 -28 -15 -22 -20 -24 -57 -114 -18 -24 -24 -24 -37 -0 -0 -0 -1 -0 -1 -0 -6 -1 -0 -0 -1 -6 -10
-0 -0 -0 -0 -0 -0 -0 -0 -0 -0 -0 -0 -0 -0 -0 -11 -128 -72 -25 -11 -14 -33 -120 -18 -33 -0 -23 -22 -42 -0 -30 -0 -1 -1 -2 -0 -8 -2 -0 -0 -6 -9 -6
-0 -0 -0 -0 -0 -0 -0 -0 -0 -0 -0 -0 -0 -0 -0 -0 -0 -122 -36 -18 -7 -25 -15 -29 -55 -13 -11 -15 -43 -0 -45 -0 -2 -0 -2 -1 -6 -3 -2 -0 -5 -9 -10
-0 -0 -0 -0 -0 -0 -0 -0 -0 -0 -0 -0 -0 -0 -0 -0 -0 -0 -70 -10 -8 -13 -39 -0 -23 -0 -14 -16 -40 -47 -48 -1 -1 -1 -5 -0 -4 -1 -2 -2 -4 -8 -9
-0 -0 -0 -0 -0 -0 -0 -0 -0 -0 -0 -0 -0 -0 -0 -0 -0 -0 -0 -67 -8 -25 -35 -21 -7 -42 -33 -1 -8 -33 -6 -0 -1 -2 -7 -0 -0 -0 -2 -6 -15 -8 -7
-0 -0 -0 -0 -0 -0 -0 -0 -0 -0 -0 -0 -0 -0 -0 -0 -0 -0 -0 -0 -0 -0 -4 -2 -0 -4 -25 -8 -1 -0 -1 -6 -1 -2 -5 -0 -0 -0 -0 -1 -7 -8 -4
-0 -0 -0 -0 -0 -0 -0 -0 -0 -0 -0 -0 -0 -0 -0 -0 -0 -0 -0 -0 -0 -12 -1 -0 -9 -0 -10 -11 -9 -2 -1 -0 -0 -1 -10 -0 -0 -0 -0 -2 -11 -9 -1
-0 -0 -0 -0 -0 -0 -0 -0 -0 -0 -0 -0 -0 -0 -0 -0 -0 -0 -0 -0 -0 -0 -7 -0 -4 -26 -29 -29 -14 -0 -1 -1 -1 -0 -7 -0 -0 -3 -0 -0 -0 -2 -1
-0 -0 -0 -0 -0 -0 -0 -0 -0 -0 -0 -0 -0 -0 -0 -0 -0 -0 -0 -0 -0 -0 -0 -2 -1 -7 -9 -42 -24 -22 -0 -2 -20 -80 -8 -0 -0 -7 -1 -0 -0 -0 -0
-0 -0 -0 -0 -0 -0 -0 -0 -0 -0 -0 -0 -0 -0 -0 -0 -0 -0 -0 -0 -0 -0 -0 -0 -1 -38 -39 -43 -0 -4 -0 -1 -14 -0 -0 -0 -1 -9 -5 -5 -5 -1 -0
-0 -0 -0 -0 -0 -0 -0 -0 -0 -0 -0 -0 -0 -0 -0 -0 -0 -0 -0 -0 -0 -0 -0 -1 -13 -28 -0 -2 -27 -11 -1 -0 -1 -0 -0 -3 -0 -0 -5 -6 -7 -1 -6
-0 -0 -0 -0 -0 -0 -0 -0 -0 -0 -0 -0 -0 -0 -0 -0 -0 -0 -0 -0 -0 -0 -0 -0 -1 -10 -0 -1 -13 -10 -0 -1 -1 -0 -0 -0 -2 -0 -1 -5 -7 -6 -2
-0 -0 -0 -0 -0 -0 -0 -0 -0 -0 -0 -0 -0 -0 -0 -0 -0 -0 -0 -0 -0 -0 -0 -0 -0 -0 -2 -0 -2 -16 -1 -8 -0 -1 -1 -0 -1 -0 -0 -0 -2 -0 -16
-0 -0 -0 -0 -0 -0 -0 -0 -0 -0 -0 -0 -0 -0 -0 -0 -0 -0 -0 -0 -0 -0 -0 -0 -0 -0 -10 -0 -0 -20 -32 -3 -2 -1 -1 -2 -1 -0 -0 -0 -0 -1 -3
-5 -14 -15 -0 -0 -0 -0 -0 -0 -0 -0 -0 -0 -0 -0 -0 -0 -0 -0 -0 -0 -0 -0 -0 -0 -1 -2 -1 -0 -0 -7 -0 -0 -1 -1 -0 -2 -0 -1 -1 -1 -1 -0
-7 -6 -10 -3 -2 -3 -1 -3 -0 -0 -0 -0 -0 -0 -0 -0 -0 -0 -0 -0 -0 -0 -0 -0 -0 -0 -1 -0 -15 -0 -2 -2 -0 -0 -0 -0 -2 -0 -0 -1 -0 -0 -1
-9 -7 -11 -3 -3 -3 -1 -2 -2 -0 -0 -0 -0 -0 -1 -0 -0 -0 -0 -0 -0 -0 -0 -0 -0 -0 -0 -12 -6 -0 -0 -0 -0 -0 -0 -7 -0 -0 -0 -1 -0 -0 -0
-5 -9 -7 -3 -4 -4 -3 -2 -2 -0 -0 -0 -2 -1 -1 -0 -0 -0 -0 -0 -0 -0 -0 -0 -0 -0 -0 -2 -14 -0 -0 -0 -4 -0 -1 -0 -12 -2 -1 -0 -0 -0 -1
-0 -8 -5 -5 -4 -4 -2 -2 -2 -2 -0 -3 -2 -2 -2 -1 -1 -0 -0 -0 -0 -0 -0 -0 -0 -0 -0 -0 -11 -0 -0 -0 -0 -0 -12 -2 -1 -1 -0 -1 -0 -0 -0
Wind_Speed
29 29 28 28 28 28 27 26 24 23 22 13 11 8 9 9 9 9 11 11 11 13 14 12 11 9 9 10 11 11 12 12 15 16 17 18 17 17 18 19 20 17 16
29 28 27 27 28 29 29 28 25 23 24 18 10 8 7 8 8 9 11 8 9 14 15 15 12 10 9 8 8 9 10 12 14 15 16 15 17 16 14 13 14 16 16
27 28 26 28 28 28 28 28 26 24 24 22 13 12 6 6 5 7 6 6 14 13 15 16 14 11 9 6 7 7 9 12 13 13 13 14 14 15 14 14 15 16 17
27 28 27 27 28 28 29 28 26 25 24 20 17 16 11 6 4 3 3 4 9 8 12 20 14 10 8 6 6 5 8 10 12 12 11 12 12 13 14 15 15 17 17
28 29 28 29 28 29 28 28 25 25 23 20 18 16 20 14 9 6 6 2 4 4 6 15 13 9 7 5 4 3 7 8 10 11 9 8 11 12 13 15 16 17 17
29 28 28 29 29 28 27 27 26 24 23 22 20 18 17 19 17 12 3 6 6 10 10 5 9 10 6 4 3 1 3 2 8 7 8 8 8 10 11 12 12 13 15
28 28 29 30 30 28 27 27 26 24 24 23 21 20 18 18 19 16 13 9 3 5 7 8 7 7 4 1 1 1 1 3 8 6 7 7 7 7 9 11 14 14 14
28 28 29 30 30 29 28 26 25 24 24 23 22 21 20 17 17 17 15 15 8 3 5 8 12 10 4 4 3 3 5 15 10 8 7 6 7 6 7 10 12 11 11
29 29 30 30 30 29 28 27 26 26 25 24 24 22 22 20 19 21 24 23 13 7 1 9 11 11 8 5 4 4 9 17 11 8 6 5 6 5 5 10 12 12 13
30 31 31 31 31 30 29 28 28 27 26 25 25 24 22 22 22 23 26 29 27 9 1 6 8 9 10 11 6 7 9 15 10 8 6 4 6 4 3 9 11 12 12
32 32 32 33 32 32 29 29 28 28 28 26 26 25 24 23 23 23 25 26 17 10 3 1 7 4 2 6 9 9 8 15 11 10 6 4 4 4 2 5 9 11 10
34 34 33 33 33 32 30 31 28 28 28 27 28 27 25 25 25 24 26 25 20 14 8 2 1 3 4 6 13 11 17 14 14 11 6 3 4 2 2 5 6 9 9
33 33 34 33 33 32 32 31 30 28 28 27 27 28 28 26 26 25 24 23 23 20 13 4 2 2 7 12 15 10 16 15 14 13 5 4 7 2 2 5 7 6 13
33 33 34 34 33 32 31 31 30 29 28 28 28 27 27 27 25 26 26 26 24 25 20 10 5 3 4 14 20 20 16 16 17 12 6 6 8 4 2 2 4 5 10
33 33 33 34 34 33 32 32 31 30 29 28 28 27 26 27 26 25 27 27 26 28 29 18 10 11 9 10 21 25 20 19 16 14 9 8 8 9 4 3 1 8 8
32 32 33 33 33 34 33 32 31 30 30 28 28 27 26 26 26 26 27 28 28 28 30 30 19 10 9 7 18 28 23 20 17 16 9 9 10 10 9 6 4 8 9
31 32 33 33 34 34 34 33 31 30 30 29 28 27 27 26 27 27 27 27 28 29 31 32 20 16 14 10 14 27 20 21 20 16 11 11 11 13 10 9 7 2 8
31 33 33 34 34 34 33 33 32 30 30 29 29 28 27 27 26 27 27 27 29 31 32 35 24 20 14 8 9 29 23 23 25 20 15 12 13 10 14 13 13 7 2
29 32 34 35 35 35 34 33 32 31 30 29 29 28 29 27 26 27 28 27 28 30 29 38 27 26 16 19 8 15 27 24 28 23 19 16 14 14 11 11 15 15 5
26 30 33 34 35 35 34 33 32 31 30 29 29 28 29 28 29 27 27 28 28 28 30 25 35 23 20 38 25 24 24 27 28 26 21 18 15 15 16 8 11 14 10
22 28 33 35 35 35 34 33 32 32 31 30 29 29 28 28 28 28 26 28 28 28 29 29 29 16 21 24 21 21 25 26 27 28 22 19 16 15 15 13 9 14 15
17 23 31 34 35 34 33 32 31 32 31 31 30 29 28 28 28 28 27 28 28 29 29 28 28 23 23 15 22 24 24 24 25 27 25 22 18 15 15 15 15 16 14
13 18 29 34 34 34 32 31 30 30 30 30 30 30 29 28 28 27 28 28 27 28 30 29 28 29 26 16 23 24 27 31 22 24 27 25 20 19 17 16 16 16 19
9 15 25 33 33 32 30 29 29 30 31 31 30 30 30 28 28 27 27 28 25 27 29 28 30 29 30 30 22 32 30 26 24 25 27 27 25 22 20 18 17 18 18
9 11 19 29 32 30 29 28 28 29 30 30 30 30 29 28 27 27 27 28 24 26 26 27 29 29 30 28 26 30 30 28 25 24 25 25 27 27 23 22 20 19 19
10 10 12 23 31 29 28 27 28 28 29 29 29 28 28 28 27 27 28 26 28 28 27 26 29 28 30 29 22 23 23 25 26 29 23 25 26 25 26 24 23 21 20
Wind_Direction
311 308 310 313 326 337 340 338 332 330 328 31 71 40 59 62 73 73 77 81 82 86 89 83 78 65 59 57 48 46 48 48 62 68 69 65 61 57 57 58 61 48 42
303 304 307 315 327 336 338 340 335 332 334 352 58 343 31 66 76 78 85 68 72 89 93 93 85 73 62 48 38 44 49 56 66 70 64 58 59 55 38 32 28 48 49
310 313 306 322 327 333 334 339 340 341 341 348 357 299 2 59 63 72 62 48 92 91 94 95 91 77 63 43 46 45 54 64 70 65 53 54 52 50 41 41 40 54 61
318 318 316 321 326 331 333 335 336 343 340 339 317 276 297 334 342 18 17 47 93 85 96 112 90 73 62 55 48 47 60 71 70 65 46 49 44 44 44 48 54 65 66
325 325 324 324 326 329 334 336 332 338 339 325 313 303 260 289 301 313 321 59 50 28 284 101 83 76 66 56 47 51 71 73 63 59 34 18 42 45 48 56 65 70 71
325 327 329 331 327 329 331 334 336 329 333 330 313 307 297 273 280 293 46 91 86 102 97 7 67 80 73 64 61 53 78 29 56 4 10 18 21 43 43 53 56 62 65
328 327 329 330 330 327 326 329 330 329 331 327 319 307 299 286 274 281 282 295 14 74 81 54 76 79 70 103 175 182 284 282 273 356 0 346 21 13 42 53 68 70 65
326 325 327 327 330 327 323 321 322 323 320 322 318 306 298 293 286 277 279 279 305 62 78 108 120 102 72 202 190 226 247 240 265 303 8 339 30 6 35 64 70 64 62
326 326 326 326 325 325 322 318 313 314 314 314 314 304 295 287 283 274 261 267 291 305 37 125 122 116 113 177 194 226 245 237 265 288 345 343 36 7 34 77 76 72 73
328 328 325 323 323 320 318 317 314 310 310 311 309 303 297 285 280 277 266 258 261 294 6 121 122 112 124 137 207 221 244 244 271 285 322 359 40 25 0 79 81 76 76
323 325 326 323 322 318 316 314 313 312 307 308 305 304 299 294 285 277 273 268 276 282 279 186 132 112 159 220 216 226 242 250 262 277 304 34 9 28 34 65 81 81 73
319 320 321 322 321 319 316 310 310 310 306 305 304 305 299 293 283 280 275 272 267 271 278 169 214 121 152 226 230 232 245 251 256 272 298 340 324 17 88 87 78 82 80
319 318 320 319 318 317 316 314 306 308 308 304 303 305 297 295 285 278 274 274 262 257 265 250 208 211 253 240 234 238 248 247 256 266 298 303 282 320 117 94 93 72 100
315 317 317 318 316 315 312 313 308 304 304 301 301 304 302 292 289 272 271 268 263 251 256 253 249 233 245 243 239 244 247 246 252 266 279 281 278 280 163 134 94 81 99
318 315 315 315 314 313 310 307 305 305 302 301 298 298 302 285 283 275 268 265 260 252 245 253 253 255 252 234 245 241 241 242 252 260 270 271 271 263 239 212 156 111 105
323 320 318 315 313 310 308 305 301 302 300 300 297 297 296 295 281 278 271 264 261 257 251 243 252 244 248 226 247 238 239 241 248 256 265 266 264 263 251 235 243 121 116
329 325 320 316 314 310 305 302 300 297 298 295 295 293 294 295 288 277 270 267 262 259 251 240 250 248 249 246 244 241 246 244 242 251 260 262 262 259 252 241 242 190 124
332 327 322 318 315 311 304 299 296 295 293 291 293 292 293 290 297 285 272 269 267 260 250 240 245 244 245 224 222 239 246 244 239 247 255 257 261 266 254 248 246 239 192
336 326 323 319 315 311 305 298 293 291 291 289 291 291 290 285 289 287 275 275 273 262 261 241 248 241 246 246 233 232 240 243 239 245 250 252 258 261 265 249 247 246 246
343 333 322 320 317 311 304 298 291 287 286 287 287 288 288 285 281 285 282 277 275 269 259 262 244 243 240 219 248 245 243 242 241 244 248 251 257 261 259 257 251 246 253
346 337 323 317 317 311 304 296 290 284 282 283 285 286 286 284 284 280 283 277 275 270 261 258 255 225 245 237 241 247 245 248 245 243 246 250 254 260 261 260 248 254 256
352 346 330 319 315 311 304 296 290 284 279 277 283 283 285 283 283 275 280 278 273 268 264 261 263 254 257 228 237 237 244 249 250 246 245 248 251 257 260 261 259 258 258
354 352 339 322 317 310 306 295 291 285 279 273 280 281 284 280 278 277 275 275 276 271 263 262 264 258 255 238 235 247 240 247 245 248 246 246 248 254 258 260 261 261 259
0 1 346 325 316 313 308 295 289 283 278 274 276 280 280 278 276 276 273 271 279 277 266 265 262 260 260 250 249 240 249 252 242 248 246 245 248 251 256 259 261 261 261
15 14 359 332 314 313 307 300 289 286 280 275 274 278 279 278 274 275 273 270 275 278 273 269 262 262 262 254 248 242 248 253 244 247 242 243 247 250 254 256 260 261 261
24 20 17 349 314 310 306 302 294 286 282 274 274 275 278 277 274 272 273 271 265 273 276 273 264 265 262 264 254 250 244 247 243 245 249 242 243 248 251 253 256 260 262